Simultaneous Nadir Overpasses (SNOs) Predictions

Prediction of SNOs between METOP-C and LANDSAT-8 Satellite Orbit:

Table of predicted SNOs for the next 14.0 days since TLE Epoch: 12/17/2022
Index Date (METOP-C) Time (METOP-C) Lat,Lon (METOP-C) SZA (METOP-C ) Date (LANDSAT-8) Time (LANDSAT-8) Lat,Lon (LANDSAT-8) SZA (LANDSAT-8 ) Distance(km) Time Diff (sec)
1 12/19/2022 09:41:08 -81.11,-105.62 73.51 12/19/2022 09:41:39 -81.11,-105.81 73.52 3.25 31
2 12/19/2022 10:31:48 81.13, 62.30 106.57 12/19/2022 10:31:04 81.14, 62.28 106.55 0.58 44
3 12/22/2022 05:15:31 -81.10, -39.47 73.55 12/22/2022 05:15:52 -81.09, -39.53 73.55 1.38 21
4 12/22/2022 06:06:11 81.12, 128.47 106.53 12/22/2022 06:05:17 81.12, 128.52 106.51 0.91 54
5 12/25/2022 00:49:52 -81.10, 27.01 73.61 12/25/2022 00:50:03 -81.10, 26.96 73.62 1.02 11
6 12/25/2022 01:40:32 81.13,-165.04 106.47 12/25/2022 01:39:28 81.12,-165.01 106.44 0.67 64
7 12/27/2022 19:33:35 81.09, -74.25 106.22 12/27/2022 19:34:48 81.09, -74.32 106.24 1.18 73
8 12/27/2022 20:24:13 -81.12, 93.80 73.70 12/27/2022 20:24:14 -81.12, 93.68 73.71 2.08 1
9 12/27/2022 21:14:38 81.28, -92.47 107.06 12/27/2022 21:13:24 81.45, -92.62 107.14 19.16 74
10 12/30/2022 15:07:57 81.09, -7.89 106.03 12/30/2022 15:08:59 81.10, -7.76 106.07 2.33 62



Historial Predications of SNOs between METOP-C and LANDSAT-8
